Погода в Зосени

Погода в Зосени : погода сейчас, прогноз погоды и архив. Всё, что Вы хотите узнать о погоде в Зосени!

Поиск расширенной информации на нашем сайте:

Другие новости

Новости СМИ2

Главная страница сайта

Новости сайта

03.07.2017

Напоминаем, что на нашем специализированном сайте Метеоцентр.Азия вы можете получить высокодетализированные автоматические прогнозы погоды по пунктам России, СНГ и мира в авиационном формате (включающие направление и скорость ветра, видимость, явления погоды, количество и форму облачности, нижнюю и верхнюю границу облачности).


Погода в Зосени - сегодня

Время (UTC), дата Ветер
(°,м/с) 
Видим.   Явления Облачность Т
(°С)
Тd
(°С)
f(%) Тe
(°С)
Pmin
(гПа)
dP
(гПа)
Po
(мм)
O2
(г/м3)
Тmin Tmax R s Состояние
почвы
09 10.12.17 230 (ЮЗ) н/о    н/о 
-2 -5.1 79 -4  1001.2  0.4  734  298           
12 10.12.17 210 (ЮЗ) н/о    н/о 
-1.1 -4 81 -2  999.9  -1.2  732  297           
15 10.12.17 210 (ЮЗ) н/о    н/о 
-1.4 -2.2 94 -2  1000.2  0.3  733  296           
18 10.12.17 190 (Ю) н/о    10/0 кучево-дожд. 
[Cb calv]
-0.9 -1.8 94 -2  1000.1  -0.1  733  296    -0.9       
21 10.12.17 200 (Ю) н/о    н/о 
-1 -3.3 84 1000.6  0.5  734  296           
00 11.12.17 160 (Ю) н/о    н/о 
-1.8 -3 91 -3  1000.2  -0.5  733  297           
06 11.12.17 130 (ЮВ) 20000 м    6/0 кучево-дожд. 
[Cb calv]
-2.9 -4.5 89 -5  999.9  0.2  733  298  -3      мокрый или
старый снег
50-90% 
09 11.12.17 120 (ЮВ) н/о    н/о 
-3 -4.5 89 -7  1000.4  0.5  733  298           
12 11.12.17 140 (ЮВ) н/о    н/о 
-2.1 -4 87 -4  999.5  -0.8  732  298           
15 11.12.17 160 (Ю) н/о    н/о 
-2.2 -4 87 -4  1001.1  1.6  734  298           
18 11.12.17 140 (ЮВ) н/о    10/0 кучево-дожд. 
[Cb calv]
-1.9 -3.1 91 -5  1001.9  0.8  735  298    -1.9       
21 11.12.17 130 (ЮВ) н/о    н/о 
-1.4 -2.2 94 -3  1001.1  -0.8  734  297           
00 12.12.17 140 (ЮВ) н/о    н/о 
-1 -1.5 96 -4  1000.7  -0.3  733  297           
03 12.12.17 130 (ЮВ) н/о    н/о 
-0.5 -0.7 99 -3  999.1  -1.5  733  295           
06 12.12.17 140 (ЮВ) 5-10{11}  20000 м    10/0 
[Sc diur, vesp]
+0.6 +0.1 96 -2  996.9  -2.1  731  293  -2      мокрый или
старый снег
50-90% 
12 12.12.17 180 (Ю) 5-12{13}  н/о    н/о 
+1.5 +0.9 96 -1  992.8  -1.6  727  291           
15 12.12.17 210 (ЮЗ) 3{10}  н/о    н/о 
+2.9 +2.4 97 +2  992.9  0.2  728  289           
18 12.12.17 230 (ЮЗ) 6-10{11}  н/о    10/0 кучево-дожд. 
[Cb calv]
+4.7 +3.4 91 +2  993.5  0.7  729  287    +4.8     
21 12.12.17 220 (ЮЗ) 7-13{14}  н/о    н/о 
+5.1 +2.6 84 +2  994  0.6  729  287           
00 13.12.17 230 (ЮЗ) 7-13{16}  н/о    н/о 
+2.8 +0.3 84 -1  995.2  0.9  729  291           
03 13.12.17 250 (З) 5{17}  н/о    н/о 
+1.2 +0.4 94 -2  997.3  731  292           
06 13.12.17 260 (З) 4{17}  4000 м  слаб. ливневой дождь со снегом  10/0 кучево-дожд. 
[Cb cap]
+0.5 -0.1 96 -2  1002.7  5.2  735  295  +0.5    мокрый или
старый снег
10-40% 
09 13.12.17 250 (З) 4{10}  н/о    н/о 
-0.3 -1.5 92 -3  1006.3  3.4  738  297           
12 13.12.17 230 (ЮЗ) 4{10}  н/о    н/о 
+0 -2 86 -2  1007  0.7  738  297           
15 13.12.17 230 (ЮЗ) н/о    н/о 
+0.5 -0.1 96 -2  1007.7  0.8  739  296           
Время (UTC), дата Ветер
(°,м/с) 
Видим.   Явления Облачность Т
(°С)
Тd
(°С)
f(%) Тe
(°С)
Pmin
(гПа)
dP
(гПа)
Po
(мм)
O2
(г/м3)
Тmin Tmax R s Состояние
почвы

Для получения пояснительной информации подведите курсор к названию столбца.

ПОГОДА в Зосени - архив

Всё, что Вы хотите узнать о погоде в Зосени - удобно и подробно!

Выберите нужную дату (начиная с 1 января 2015* года) и нажмите кнопку "Найти".
Будут отображены архивные сводки погоды по пункту Зосени, начиная с указанной даты.


Отображать данные в формате CSV (для использования в таблицах Excel)


Внимание! Наш архив погоды предназначен исключительно для личного некоммерческого использования в познавательных целях. Если Вам необходимы официальные справки о состоянии погоды (для производственных, юридических, коммерческих и т.п. целей), обращайтесь в органы Росгидромета.

*Примечание: данная дата относится к архиву по метеостанциям СССР (Россия, СНГ, Балтия).
Архив по метеостанциям Зарубежной Европы и Азии (кроме Китая) хранится 10 дней, по другим регионам земного шара (Китай, Африка, Америка, Австралия, Океания) - 1 день.

Зосени - район местоположения метеостанции


Название, широта, долгота, высота метеостанции:
Зосени 57.1°ш. 25.9°д. 180 м над ур. моря [Латвия]

Дополнительная информация

В oтличие oт бoльшинства пoгoдных сайтoв мы публикуем пoдрoбную метеoинфoрмацию в детальнoм прoфессиoнальнoм фoрмате.

Характеристики температуры и влажнoсти вoздуха измеряются на высoте 2 м в тени вдали oт зданий и деревьев.
Скoрoсть ветра измеряется на высoте 10 м (на урoвне рoста челoвека скoрoсть ветра ниже в 1.5-2 раза). Если метеoстанция нахoдится в гoрoде или в лесу, тo скoрoсть ветра занижена на 2-4 м/с пo сравнению с oткрытым местoм. Скoрoсть ветра над акватoриями крупных рек и oзёр, а также на вершинах хoлмoв на 2-5 м/с выше, чем в oбычных услoвиях.
Атмoсфернoе давление в разных тoчках местнoсти мoжет значительнo oтличаться oт давления на метеoстанции, в зависимoсти oт услoвий рельефа (при пoдъёме на 10 м давление пoнижается примернo на 1 мм рт.ст.).